Regional Weather Roundup
Issued by NWS Little Rock, AR

Home | Current Version | Previous Version | Graphics & Text | Print | Product List | Glossary Off
Versions: 1 2 3 4 5 6 7 8 9 10 11 12 13 14 15 16 17 18 19 20 21 22 23 24 25 26 27 28 29 30 31 32

000
ASUS44 KLZK 201305
RWRLZK

WEATHER ROUNDUP FOR ARKANSAS
NATIONAL WEATHER SERVICE LITTLE ROCK AR
800 AM CDT WED SEP 20 2017

NOTE: "FAIR" INDICATES FEW OR NO CLOUDS BELOW 12,000 FEET WITH NO
SIGNIFICANT WEATHER AND/OR OBSTRUCTIONS TO VISIBILITY.

ARZ001-003-010-029-201400-
NORTHWEST ARKANSAS

CITY           SKY/WX    TMP DP  RH WIND       PRES   REMARKS
FAYETTEVILLE   SUNNY     75  74  96 S8        29.92R
FORT SMITH     SUNNY     77  74  90 NE6       29.90R
HARRISON       SUNNY     75  71  87 S8        29.93R
BENTONVILLE    SUNNY     75  71  87 S9G18     29.93R
ROGERS         SUNNY     75  71  87 S10       29.92R
SILOAM SPGS    SUNNY     76  72  87 S12       29.91R
HIGHFILL       SUNNY     75  73  93 S13       29.91
SPRINGDALE     SUNNY     77  73  88 S12       29.94R
$$

ARZ004-005-016-201400-
NORTH CENTRAL ARKANSAS

CITY           SKY/WX    TMP DP  RH WIND       PRES   REMARKS
BATESVILLE     SUNNY    N/A N/A N/A VRB3      29.95R
FLIPPIN        SUNNY     71  69  93 CALM      29.93R FOG
MTN HOME       SUNNY     73  72  96 SE5       29.93R
$$

ARZ040-041-201400-
WEST CENTRAL ARKANSAS

CITY           SKY/WX    TMP DP  RH WIND       PRES   REMARKS
MENA           CLOUDY    79  77  94 SW3       29.97R
MOUNT IDA      CLOUDY    78  72  81 CALM      29.94R
$$

ARZ009-017-025-026-028-201400-
NORTHEAST ARKANSAS

CITY           SKY/WX    TMP DP  RH WIND       PRES   REMARKS
JONESBORO      SUNNY     73  73 100 VRB5      29.95R
NEWPORT        SUNNY     73  72  96 S8        29.95R
BLYTHEVILLE    SUNNY     74  73  97 S6        29.97R
NW BLYTHEVILLE SUNNY     77  72  83 S5        29.97
$$

ARZ022-023-033-042-044-201400-
CENTRAL ARKANSAS

CITY           SKY/WX    TMP DP  RH WIND       PRES   REMARKS
LITTLE ROCK    MOSUNNY   75  75 100 S6        29.95R
N LITTLE ROCK    N/A     75  72  92 CALM      29.95R
JACKSONVILLE   MOSUNNY   75  74  99 S5        29.94R
CONWAY           N/A     75  73  94 S5        29.92R
SEARCY         SUNNY     73  73 100 S6        29.96R FOG
HOT SPRINGS    CLOUDY    78  75  90 S6        29.96R
RUSSELLVILLE   SUNNY     76  73  91 CALM      29.93R
CLINTON        FAIR      68  68 100 CALM      29.94R FOG
$$

ARZ036-201400-
EAST ARKANSAS

CITY           SKY/WX    TMP DP  RH WIND       PRES   REMARKS
WEST MEMPHIS   SUNNY     75  74  96 S5        29.96R
$$

ARZ050-053-066-070-073-201400-
SOUTHWEST ARKANSAS

CITY           SKY/WX    TMP DP  RH WIND       PRES   REMARKS
ARKADELPHIA    CLOUDY    71  71 100 CALM      29.96R FOG
CAMDEN         CLOUDY    75  72  88 S5        29.96R FOG
TEXARKANA      CLOUDY    76  75  97 S7        29.95R
EL DORADO      CLOUDY    75  74  96 S3        29.98R
DE QUEEN       CLOUDY    74  74 100 CALM      29.92R FOG
$$

ARZ056-057-069-201400-
SOUTHEAST ARKANSAS

CITY           SKY/WX    TMP DP  RH WIND       PRES   REMARKS
PINE BLUFF     MOSUNNY   75  72  90 S6        29.96R
STUTTGART      SUNNY     76  72  87 S8        29.96R
MONTICELLO     CLOUDY    77  73  87 CALM      29.97R

$$






USA.gov is the U.S. government's official web portal to all federal, state and local government web resources and services.